Regional Weather Roundup
Issued by NWS

Home | Current Version | Previous Version | Text Only | Print | Product List | Glossary On
Versions: 1 2 3 4 5 6 7 8 9 10 11 12 13 14 15 16 17 18 19 20 21 22 23 24 25 26 27 28 29 30 31 32 33 34 35 36 37 38 39 40 41 42 43 44 45 46 47 48 49 50
000
ASUS43 KMPX 212010
RWRMN
WEATHER ROUNDUP FOR MINNESOTA
NATIONAL WEATHER SERVICE TWIN CITIES/CHANHASSEN MN
200 PM CST SAT JAN 21 2017


NOTE: "FAIR" INDICATES FEW OR NO CLOUDS BELOW 12,000 FEET WITH NO
SIGNIFICANT WEATHER AND/OR OBSTRUCTIONS TO VISIBILITY. N/A MEANS
CURRENT SKY AND/OR WEATHER CONDITIONS ARE NOT AVAILABLE.

MNZ060>063-068>070-212100-
   Twin Cities Metro

CITY           SKY/WX    TMP DP  RH WIND       PRES   REMARKS
TWIN CITIES    CLOUDY    37  35  92 SE5       29.40R
ST PAUL        CLOUDY    37  37 100 SE3       29.41R FOG
CRYSTAL        CLOUDY    38  34  85 CALM      29.39R
BLAINE         CLOUDY    39  39 100 CALM      29.39R FOG
LAKEVILLE      FOG       34  34 100 CALM      29.38F VSB 1/2
EDEN PRAIRIE   CLOUDY    37  35  92 SE5       29.38R FOG
SOUTH ST PAUL  CLOUDY    37  36  96 CALM      29.39S
LAKE ELMO      CLOUDY    36  36 100 CALM      29.41R FOG
$$
MNZ001>005-007-008-013>017-022>024-027-028-212100-
   Northwest Minnesota

CITY           SKY/WX    TMP DP  RH WIND       PRES   REMARKS
BEMIDJI        CLOUDY    33  33 100 E7        29.41S FOG     WCI  27
HALLOCK        CLOUDY    36  34  93 E3        29.43S
ROSEAU         CLOUDY    37  32  81 E6        29.46R
WARROAD        CLOUDY    34  30  86 E7        29.47R FOG     WCI  28
THIEF RVR FALL CLOUDY    36  33  89 E7        29.43S
CROOKSTON      CLOUDY    37  36  93 CALM      29.43R
FOSSTON        CLOUDY    36  34  93 E5        29.41S
DETROIT LAKES  CLOUDY    36  36 100 CALM      29.41R
MOORHEAD       CLOUDY    36  34  93 CALM      29.41S
PARK RAPIDS    CLOUDY    37  33  85 E3        29.40S
MAHNOMEN       CLOUDY    36  35  94 SE3       29.40R
$$
MNZ006-009>011-018-025>026-212100-
   North Central Minnesota

CITY           SKY/WX    TMP DP  RH WIND       PRES   REMARKS
BAUDETTE       CLOUDY    35  33  92 E6        29.45F WCI  30
FLAG ISLAND    CLOUDY    36  34  93 SE5       29.47S
INTL FALLS     CLOUDY    36  33  89 E6        29.47S
WASKISH        CLOUDY    37  36  93 E3        29.45S
BIG FORK       CLOUDY    37  34  87 E5        29.44F
LONGVILLE      CLOUDY    36  36 100 E6        29.41S
GRAND RAPIDS   CLOUDY    36  35  96 E5        29.44S FOG
CRANE LAKE     CLOUDY    36  34  93 CALM      29.49F
ORR            CLOUDY    36  32  87 CALM      29.43F
COOK           CLOUDY    36  36 100 CALM      29.46S
WALKER         CLOUDY    34  33  99 E3        29.42R FOG
$$
MNZ012-019>021-037-212100-
   Northeast Minnesota

CITY           SKY/WX    TMP DP  RH WIND       PRES   REMARKS
DULUTH         CLOUDY    35  34  96 E15       29.42F FOG     WCI  25
ELY            CLOUDY    36  34  93 E7        29.46S
HIBBING        LGT RAIN  34  34 100 E6        29.43F WCI  29
EVELETH        CLOUDY    37  37  99 E6        29.45S
DULUTH HARBOR  DRIZZLE   34  34 100 NE12      29.46F WCI  25
TWO HARBORS    CLOUDY    37  34  87 NE9       29.43F
SILVER BAY     CLOUDY    36  36 100 NE10      29.45S
GRAND MARAIS     N/A     38  35  89 NE8       29.51S
G MARAIS ARPRT DRIZZLE   34  30  86 NE7       29.48S WCI  28
$$
MNZ029>031-032-039>041-046>048-054>057-064-212100-
   West Central Minnesota

CITY           SKY/WX    TMP DP  RH WIND       PRES   REMARKS
FERGUS FALLS   CLOUDY    37  37 100 SE3       29.43S
WHEATON        FOG       43  43 100 E6        29.40F VSB 1/2
MORRIS         FOG       36  36 100 SE5       29.38R VSB 1/4
ALEXANDRIA     CLOUDY    35  34  96 E8        29.39R FOG     WCI  29
ELBOW LAKE     CLOUDY    34  34 100 SE3       29.40R FOG
WADENA         CLOUDY    34  34 100 E7        29.39S FOG     WCI  28
GLENWOOD       CLOUDY    34  34 100 E6        29.39R FOG     WCI  29
APPLETON       FOG       36  34  93 E5        29.38S VSB 1/4
BENSON         CLOUDY    37  34  87 SE5       29.40R
ORTONVILLE     FOG       34  32  93 CALM      29.37F VSB 1/4
MADISON        MIX PCPN  37  37 100 E5        29.37F VSB 1/4
WILLMAR        DRZL/FOG  36  36 100 CALM      29.40R VSB 1/2
$$
MNZ033>034-036-042>043-049>051-058-059-212100-
   Central Minnesota

CITY           SKY/WX    TMP DP  RH WIND       PRES   REMARKS
ST CLOUD       FOG       35  35 100 E5        29.40R VSB 1/2 WCI  31
SAUK CENTRE    FOG       34  34 100 E7        29.39S VSB 1/4 WCI  27
PAYNESVILLE    FOG       35  35 100 E3        29.39S VSB 1/2
AITKIN         CLOUDY    37  34  87 E6        29.39F
PINE RIVER     CLOUDY    36  36 100 E6        29.45S
BRAINERD       CLOUDY    35  35 100 NE7       29.40F FOG     WCI  29
STAPLES        CLOUDY    36  36 100 CALM      29.40S FOG
LONG PRAIRIE   SNOW      34  34 100 N3        29.39S VSB 1/4
LITTLE FALLS   CLOUDY    34  34 100 CALM      29.41R FOG
LITCHFIELD     FOG       36  36 100 E5        29.39S VSB<1/4
BUFFALO        FOG       36  35  96 NE3       29.41R VSB 1/2
MAPLE LAKE     FOG       37  37 100 E6        29.40S VSB 1/2
HUTCHINSON     FOG       37  37 100 E3        29.40R VSB 1/4
$$
MNZ037-044-045-052-053-212100-
   East Central Minnesota

CITY           SKY/WX    TMP DP  RH WIND       PRES   REMARKS
PRINCETON      FOG       37  36  93 CALM      29.40S VSB 3/4
MORA           CLOUDY    36  36 100 CALM      29.42R
CAMBRIDGE      CLOUDY    37  37 100 NE3       29.39R FOG
RUSH CITY      CLOUDY    36  36 100 CALM      29.40R FOG
MOOSE LAKE     CLOUDY    34  34 100 NE5       29.40S FOG     WCI  30
HINCKLEY       CLOUDY    36  36 100 NE5       29.40F
CLOQUET        CLOUDY    36  34  93 E9        29.41F
MCGREGOR       CLOUDY    36  36 100 E6        29.42S
$$
MNZ071>073-080-081-089-090-097-098-212100-
   Southwest Minnesota

CITY           SKY/WX    TMP DP  RH WIND       PRES   REMARKS
MONTEVIDEO     FOG       36  36 100 SE6       29.39S VSB 1/4
GRANITE FALLS  FOG       37  37  99 E3        29.39S VSB 1/4
CANBY          CLOUDY    36  36  99 CALM      29.37S FOG
MARSHALL       CLOUDY    36  36 100 SE3       29.37S FOG
REDWOOD FALLS  FOG       36  35  96 E5        29.37F VSB 1/4
OLIVIA         FOG       34  34 100 E5        29.38R VSB 1/4 WCI  30
PIPESTONE      FOG       34  34 100 W8        29.35S VSB 1/4 WCI  27
WINDOM         FOG       37  37 100 SW7       29.36S VSB 3/4
WORTHINGTON    LGT RAIN  36  36 100 SW10      29.37R VSB 1/4
JACKSON        CLOUDY    36  36 100 SW5       29.37S FOG
TRACY          CLOUDY    38  38 100 CALM      29.36S FOG
SLAYTON        CLOUDY    36  36 100 SW6       29.36S FOG
$$
MNZ065>067-074>077-082>085-091>093-212100-
   South Central Minnesota

CITY           SKY/WX    TMP DP  RH WIND       PRES   REMARKS
MANKATO        FOG       37  37 100 CALM      29.38S VSB 1/4
NEW ULM        CLOUDY    37  37 100 CALM      29.37F
ST JAMES       CLOUDY    37  37 100 CALM      29.38S FOG
FAIRMONT       CLOUDY    38  37  97 CALM      29.38S FOG
GLENCOE        FOG       37  37 100 E6        29.38S VSB 1/4
OWATONNA       FOG       37  36  93 CALM      29.37S VSB 1/4
WASECA         FOG       36  36 100 W6        29.39S VSB 1/4
ALBERT LEA     CLOUDY    37  37 100 SW3       29.37S FOG
$$
MNZ078>079-086>088-094>096-212100-
   Southeast Minnesota

CITY           SKY/WX    TMP DP  RH WIND       PRES   REMARKS
ROCHESTER      FOG       35  35 100 SW7       29.38R VSB 3/4 WCI  29
RED WING       CLOUDY    37  36  93 CALM      29.39R FOG
STANTON        CLOUDY    37  35  93 CALM      29.37S FOG
DODGE CENTER   FOG       36  36 100 CALM      29.37S VSB<1/4
WINONA         FOG       36  36 100 CALM      29.40S VSB 3/4
AUSTIN         CLOUDY    36  36 100 SW3       29.38R FOG
PRESTON        FOG       36  35  97 S5        29.39R VSB<1/4
$$
ABBREVIATIONS USED IN REMARKS
   TC - TEMPERATURES IN CELSIUS
  WCI - WIND CHILL INDEX
   HX - HEAT INDEX
  VSB - VISIBILITY
$$



USA.gov is the U.S. government's official web portal to all federal, state and local government web resources and services.